When you browse on this site, cookies collect data to enhance your experience and personalize the content and advertising you see.
Visit our Privacy Policy to learn more. By continuing to use the site, you agree to this use of cookies and data.
  • In Sweden
  • List of Countries
  • For 7 days
  • Water Temperature
  • Satellite Maps
  • Weather Map
  • Weather Widgets
  • user-avatar
    Login

    Hourly Weather Cleveland Heights

    Today, 17 July, Wednesday

    Time Temperature Precipitation Wind Pressure Humidity
    00:00 +23°C° 0.4 mm 4 mps 736 mmHg 88%
    01:00 +23°C° 0.4 mm 4 mps 736 mmHg 88%
    02:00 +23°C° 0.2 mm 4 mps 736 mmHg 88%
    03:00 +23°C° 0.2 mm 4 mps 735 mmHg 88%
    04:00 +23°C° 0.2 mm 4 mps 735 mmHg 88%
    05:00 +24°C° 1 mm 3 mps 735 mmHg 90%
    06:00 +24°C° 1 mm 3 mps 736 mmHg 91%
    07:00 +24°C° 1 mm 3 mps 736 mmHg 93%
    08:00 +24°C° 2.2 mm 3 mps 736 mmHg 93%
    09:00 +24°C° 2.2 mm 3 mps 735 mmHg 93%
    10:00 +25°C° 2.2 mm 3 mps 735 mmHg 93%
    11:00 +25°C° 5.6 mm 3 mps 735 mmHg 92%
    12:00 +25°C° 5.6 mm 3 mps 735 mmHg 91%
    13:00 +26°C° 5.6 mm 3 mps 735 mmHg 91%
    14:00 +27°C° 0.7 mm 3 mps 735 mmHg 86%
    15:00 +28°C° 0.7 mm 3 mps 735 mmHg 82%
    16:00 +28°C° 0.7 mm 3 mps 734 mmHg 78%
    17:00 +28°C° 0 mm 3 mps 735 mmHg 80%
    18:00 +27°C° 0 mm 3 mps 735 mmHg 83%
    19:00 +26°C° 0 mm 3 mps 735 mmHg 85%
    20:00 +25°C° 0 mm 3 mps 735 mmHg 88%
    21:00 +24°C° 0 mm 3 mps 735 mmHg 91%
    22:00 +22°C° 0 mm 3 mps 736 mmHg 94%
    23:00 +23°C° 0 mm 2 mps 736 mmHg 94%

    Tomorrow, 18 July, Thursday

    Time Temperature Precipitation Wind Pressure Humidity
    00:00 +21°C° 0 mm 2 mps 736 mmHg 93%
    01:00 +21°C° 0 mm 2 mps 735 mmHg 93%
    02:00 +22°C° 0 mm 1 mps 736 mmHg 93%
    03:00 +21°C° 0 mm 1 mps 736 mmHg 94%
    04:00 +21°C° 0 mm 1 mps 736 mmHg 94%
    05:00 +22°C° 0 mm 1 mps 736 mmHg 93%
    06:00 +22°C° 0 mm 1 mps 736 mmHg 92%
    07:00 +23°C° 0 mm 1 mps 736 mmHg 91%
    08:00 +25°C° 0 mm 1 mps 737 mmHg 81%
    09:00 +28°C° 0 mm 1 mps 737 mmHg 72%
    10:00 +28°C° 0 mm 0 mps 737 mmHg 62%
    11:00 +30°C° 0 mm 2 mps 737 mmHg 59%
    12:00 +31°C° 0 mm 3 mps 737 mmHg 57%
    13:00 +32°C° 0 mm 4 mps 736 mmHg 54%
    14:00 +33°C° 0 mm 4 mps 736 mmHg 54%
    15:00 +33°C° 0 mm 3 mps 736 mmHg 54%
    16:00 +33°C° 0 mm 3 mps 735 mmHg 53%
    17:00 +31°C° 0 mm 3 mps 735 mmHg 61%
    18:00 +30°C° 0 mm 3 mps 735 mmHg 68%
    19:00 +29°C° 0 mm 3 mps 735 mmHg 75%
    20:00 +28°C° 0 mm 3 mps 735 mmHg 79%
    21:00 +27°C° 0 mm 3 mps 735 mmHg 83%
    22:00 +26°C° 0 mm 3 mps 735 mmHg 86%
    23:00 +26°C° 0 mm 4 mps 735 mmHg 86%

    Day after tomorrow, 19 July, Friday

    Time Temperature Precipitation Wind Pressure Humidity
    00:00 +26°C° 0 mm 4 mps 735 mmHg 87%
    01:00 +26°C° 0 mm 4 mps 735 mmHg 87%
    02:00 +25°C° 0 mm 4 mps 735 mmHg 88%
    03:00 +25°C° 0 mm 4 mps 735 mmHg 89%
    04:00 +25°C° 0 mm 4 mps 735 mmHg 91%
    05:00 +26°C° 0 mm 4 mps 736 mmHg 89%
    06:00 +26°C° 0 mm 4 mps 736 mmHg 87%
    07:00 +27°C° 0 mm 4 mps 736 mmHg 85%
    08:00 +29°C° 0 mm 5 mps 736 mmHg 78%
    09:00 +32°C° 0 mm 5 mps 736 mmHg 72%
    10:00 +34°C° 0 mm 5 mps 736 mmHg 66%
    11:00 +35°C° 0 mm 5 mps 736 mmHg 62%
    12:00 +36°C° 0 mm 5 mps 736 mmHg 59%
    13:00 +37°C° 0 mm 5 mps 736 mmHg 55%
    14:00 +37°C° 0 mm 5 mps 736 mmHg 55%
    15:00 +37°C° 0 mm 5 mps 736 mmHg 56%
    16:00 +37°C° 0 mm 5 mps 736 mmHg 56%
    17:00 +36°C° 0 mm 5 mps 736 mmHg 63%
    18:00 +34°C° 0 mm 4 mps 736 mmHg 69%
    19:00 +33°C° 0 mm 4 mps 736 mmHg 75%
    20:00 +32°C° 0 mm 4 mps 736 mmHg 79%
    21:00 +30°C° 0 mm 4 mps 736 mmHg 82%
    22:00 +29°C° 0 mm 4 mps 736 mmHg 86%
    23:00 +29°C° 0 mm 4 mps 736 mmHg 86%

    20 July, Saturday

    Time Temperature Precipitation Wind Pressure Humidity
    00:00 +28°C° 0 mm 4 mps 736 mmHg 87%
    01:00 +28°C° 0 mm 4 mps 736 mmHg 88%
    02:00 +28°C° 0 mm 4 mps 736 mmHg 89%
    03:00 +27°C° 0 mm 3 mps 736 mmHg 89%
    04:00 +27°C° 0 mm 3 mps 736 mmHg 90%
    05:00 +27°C° 0 mm 3 mps 736 mmHg 89%
    06:00 +28°C° 0 mm 3 mps 737 mmHg 87%
    07:00 +28°C° 0 mm 3 mps 737 mmHg 85%
    08:00 +30°C° 0 mm 4 mps 737 mmHg 77%
    09:00 +32°C° 0 mm 4 mps 737 mmHg 68%
    10:00 +34°C° 0 mm 4 mps 737 mmHg 59%
    11:00 +35°C° 0 mm 5 mps 736 mmHg 57%
    12:00 +35°C° 0 mm 5 mps 736 mmHg 54%
    13:00 +36°C° 0 mm 5 mps 736 mmHg 51%
    14:00 +36°C° 0.2 mm 5 mps 736 mmHg 53%
    15:00 +36°C° 0.2 mm 5 mps 735 mmHg 55%
    16:00 +36°C° 0.2 mm 5 mps 735 mmHg 57%
    17:00 +34°C° 0.2 mm 5 mps 735 mmHg 63%
    18:00 +33°C° 0.2 mm 4 mps 735 mmHg 69%
    19:00 +30°C° 0.2 mm 4 mps 735 mmHg 75%
    20:00 +30°C° 0.1 mm 4 mps 735 mmHg 76%
    21:00 +29°C° 0.1 mm 4 mps 735 mmHg 78%
    22:00 +29°C° 0.1 mm 4 mps 735 mmHg 79%
    23:00 +28°C° 0.1 mm 4 mps 735 mmHg 81%

    21 July, Sunday

    Time Temperature Precipitation Wind Pressure Humidity
    00:00 +28°C° 0.1 mm 4 mps 735 mmHg 82%
    01:00 +27°C° 0.1 mm 3 mps 735 mmHg 84%
    02:00 +27°C° 0.2 mm 3 mps 735 mmHg 86%
    03:00 +27°C° 0.2 mm 3 mps 735 mmHg 88%
    04:00 +26°C° 0.2 mm 3 mps 735 mmHg 89%
    05:00 +27°C° 0.6 mm 2 mps 735 mmHg 88%
    06:00 +27°C° 0.6 mm 2 mps 735 mmHg 88%
    07:00 +27°C° 0.6 mm 2 mps 735 mmHg 87%
    08:00 +29°C° 0.3 mm 3 mps 735 mmHg 82%
    09:00 +30°C° 0.3 mm 3 mps 735 mmHg 76%
    10:00 +32°C° 0.3 mm 4 mps 735 mmHg 71%
    11:00 +33°C° 0.2 mm 4 mps 735 mmHg 67%
    12:00 +34°C° 0.2 mm 4 mps 735 mmHg 63%
    13:00 +34°C° 0.2 mm 4 mps 735 mmHg 59%
    14:00 +33°C° 0.8 mm 4 mps 735 mmHg 65%
    15:00 +30°C° 0.8 mm 4 mps 735 mmHg 71%
    16:00 +29°C° 0.8 mm 4 mps 735 mmHg 78%
    17:00 +28°C° 0 mm 3 mps 734 mmHg 78%
    18:00 +27°C° 0 mm 3 mps 734 mmHg 79%
    19:00 +26°C° 0 mm 2 mps 734 mmHg 79%
    20:00 +25°C° 1 mm 2 mps 734 mmHg 83%
    21:00 +24°C° 1 mm 2 mps 735 mmHg 86%
    22:00 +23°C° 1 mm 2 mps 735 mmHg 90%
    23:00 +21°C° 1.3 mm 2 mps 735 mmHg 90%

    22 July, Monday

    Time Temperature Precipitation Wind Pressure Humidity
    00:00 +21°C° 1.3 mm 2 mps 734 mmHg 91%
    01:00 +20°C° 1.3 mm 2 mps 734 mmHg 92%
    02:00 +20°C° 0.2 mm 2 mps 734 mmHg 90%
    03:00 +20°C° 0.2 mm 2 mps 735 mmHg 88%
    04:00 +20°C° 0.2 mm 3 mps 735 mmHg 86%
    05:00 +20°C° 0 mm 3 mps 735 mmHg 86%
    06:00 +21°C° 0 mm 3 mps 735 mmHg 87%
    07:00 +21°C° 0 mm 3 mps 735 mmHg 87%
    08:00 +22°C° 0 mm 3 mps 736 mmHg 78%
    09:00 +25°C° 0 mm 3 mps 736 mmHg 68%
    10:00 +26°C° 0 mm 3 mps 736 mmHg 59%
    11:00 +27°C° 0 mm 4 mps 736 mmHg 56%
    12:00 +27°C° 0 mm 4 mps 736 mmHg 52%
    13:00 +28°C° 0 mm 4 mps 736 mmHg 49%
    14:00 +27°C° 0 mm 4 mps 736 mmHg 51%
    15:00 +27°C° 0 mm 4 mps 736 mmHg 53%
    16:00 +26°C° 0 mm 4 mps 736 mmHg 55%
    17:00 +25°C° 0 mm 5 mps 736 mmHg 60%
    18:00 +23°C° 0 mm 5 mps 736 mmHg 66%
    19:00 +22°C° 0 mm 6 mps 736 mmHg 71%
    20:00 +21°C° 0 mm 6 mps 737 mmHg 67%
    21:00 +21°C° 0 mm 6 mps 737 mmHg 63%
    22:00 +20°C° 0 mm 6 mps 737 mmHg 59%
    23:00 +19°C° 0 mm 5 mps 737 mmHg 61%
    Show more